176  
ASUS41 KBTV 180231  
RWRBTV  
VERMONT REGIONAL WEATHER ROUNDUP  
NATIONAL WEATHER SERVICE BURLINGTON VT  
1000 PM EDT SAT APR 17 2021  
 
NOTE: "FAIR" INDICATES FEW OR NO CLOUDS BELOW 12,000 FEET WITH NO  
SIGNIFICANT WEATHER AND/OR S TO VISIBILITY
.  
 
* THESE REPORTS ARE NOT UNDER NWS QUALITY CONTROL AND/OR DO NOT  
REPORT WEATHER SUCH AS PRECIPITATION AND FOG.
 
 
VTZ001>019-180300-  
_____VERMONT_____  
 
 
CITY SKY/WX TMP DP RH WIND PRES REMARKS
 
BURLINGTON PTCLDY 42 32 67 E5 29.81S  
MONTPELIER CLOUDY 37 36 96 CALM 29.82F  
MORRISVILLE CLOUDY 39 37 92 CALM 29.81S  
ST. JOHNSBURY* N/A 39 34 82 MISG 29.78S  
LYNDONVILLE* CLOUDY 36 31 81 CALM 29.79F  
MIDDLEBURY* MOCLDY 35 33 93 CALM 29.81S  
RUTLAND* PTCLDY 37 37 100 SE3 29.80S  
SPRINGFIELD CLOUDY 40 34 79 CALM 29.80F  
HIGHGATE* CLOUDY 39 36 89 CALM 29.82S  
NEWPORT* CLOUDY 39 35 87 CALM 29.80S  
BENNINGTON CLOUDY 40 35 83 CALM 29.79S  
ISLAND POND* N/A 34 N/A N/A CALM N/A  
GALLUP MILLS* N/A 30 N/A N/A MISG N/A  
LAKE EDEN* N/A 34 N/A N/A CALM N/A  
 
_____LAKE CHAMPLAIN_____  
 
 
CITY SKY/WX TMP DP RH WIND PRES REMARKS
 
COLCHESTER RF* N/A 43 36 75 W9 N/A  
DIAMOND ISL* N/A 43 34 70 N1 N/A  
 

 
 
NYZ007-026>031-035-052-083-087-180300-  
_____NORTHERN NEW YORK_____  
 
 
CITY SKY/WX TMP DP RH WIND PRES REMARKS
 
PLATTSBURGH CLOUDY 39 35 86 CALM 29.81S  
SARANAC LAKE CLOUDY 30 29 96 CALM 29.77S  
MASSENA CLOUDY 44 34 67 CALM 29.82S  
OGDENSBURG* FAIR 45 37 76 SW6 29.78F  
POTSDAM* CLOUDY 37 36 93 S3 29.80S  
WATERTOWN CLOUDY 43 38 82 S3 29.82F  
FT DRUM CLOUDY 41 37 86 W3 29.81S  
ALBANY MOCLDY 40 38 93 CALM 29.82R  
GLENS FALLS CLEAR 38 34 85 CALM 29.81S  
 

 
NHZ002-005-011-180300-  
_____NEW HAMPSHIRE_____  
 
 
CITY SKY/WX TMP DP RH WIND PRES REMARKS
 
LEBANON CLOUDY 44 33 65 N5 29.79F  
KEENE CLOUDY 42 36 79 NW3 29.80S  
MT WASHINGTON FOG 18 18 100 N13 N/A VSB 1/16WCI 4  
PLYMOUTH FAIR 33 32 96 CALM 29.79S  
WHITEFIELD CLOUDY 33 31 92 CALM 29.78S  
 

 
 
_____REGIONAL QUEBEC LOCATIONS_____  
 
 
CITY SKY/WX TMP DP RH WIND PRES REMARKS
 
MONTREAL MOCLDY 43 34 70 SW3 29.81S  
QUEBEC CITY LGT RAIN 39 34 81 E15 29.84S WCI 31  
SHERBROOKE CLOUDY 39 30 70 VRB2 29.78F  
 
_____REGIONAL ONTARIO LOCATIONS_____  
 
 
CITY SKY/WX TMP DP RH WIND PRES REMARKS
 
OTTAWA MOCLDY 46 37 71 S7 29.78F  
 
______KEY______  
VSB - VISIBILITY IN MILES  
WCI - WIND CHILL INDEX  
HX - HEAT INDEX  

 
NNNN  
 
 
CLICK HERE TO GO TO PREVIOUS BULLETINS.

The Nexlab VT Page
The Nexlab NY Page Main Text Page